Flag for U.S.A. Weather past 2 weeks in Sedona, Arizona, U.S.A.

Now
70 °F

Broken clouds.


Feels Like: 70 °F
Forecast: 67 / 85 °F
Wind: 14 mph from Northeast

Location: Sedona Airport

Current Time: Jul 7, 2015 at 6:10:13 PM

Latest Report: Jul 7, 2015 at 5:55 PM


Visibility: 10 mi

Pressure: 30.06 "Hg (25.90 "Hg at 1282m altitude)

Humidity: 60%

Dew point: 55 °F

Location of SedonaLocation

Historic Weather in Sedona — Graph

°F

Sedona temperature yesterday

Maximum temperature yesterday: 91 °F (at 2:15 PM)
Minimum temperature yesterday: 63 °F (at 3:55 AM)
Average temperature yesterday: 75 °F

Past Weeks' High & Low Weather Summary

 TemperatureHumidityPressure
High102 °F (Jun 26, 4:15 PM)94% (Jul 3, 7:55 PM)30.25 "Hg (Jul 3, 7:55 PM)
Low63 °F (Jul 6, 3:55 AM)10% (Jun 23, 3:55 PM)29.94 "Hg (Jul 3, 5:15 PM)
Average82 °F35%30.13 "Hg
* Reported Jun 22 4:15 PM — Jul 7 4:55 PM, Sedona, Weather by CustomWeather, © 2015

Note: Actual official high and low records may vary slightly from our data, if they occured in-between our weather recording intervals... More about our weather records

Advertising

Sedona weather history for previous 24 hours

 ConditionsComfort  
Time TempWeatherWind HumidityBarometerVisibility
4:55 PM
Tue, Jul 7
64 °FThunderstorms. More clouds than sun.10 mph78%30.09 "Hg10 mi
4:15 PM72 °FStrong thunderstorms. Broken clouds.23 mph57%30.11 "Hg2 mi
3:55 PM81 °FSunny.18 mph30%30.08 "Hg10 mi
3:35 PM86 °FThundershowers. Sunny.5 mph27%30.08 "Hg10 mi
3:15 PM86 °FSunny.8 mph27%30.08 "Hg10 mi
2:35 PM79 °FThunderstorms. Partly sunny.14 mph37%30.10 "Hg10 mi
2:15 PM79 °FScattered clouds.15 mph42%30.10 "Hg10 mi
1:55 PM84 °FThundershowers. Sunny.17 mph29%30.10 "Hg10 mi
1:35 PM90 °FSunny.7 mph26%30.09 "Hg10 mi
1:15 PM90 °FSunny.13 mph27%30.10 "Hg10 mi
12:55 PM84 °FScattered clouds.15 mph31%30.10 "Hg10 mi
12:35 PM86 °FScattered clouds.6 mph29%30.11 "Hg10 mi
12:15 PM88 °FScattered clouds.7 mph27%30.12 "Hg10 mi
11:55 AM88 °FThundershowers. Sunny.6 mph27%30.13 "Hg10 mi
11:35 AM86 °FScattered clouds.12 mph29%30.14 "Hg10 mi
11:15 AM84 °FSunny.5 mph31%30.15 "Hg10 mi
10:55 AM88 °FSunny.8 mph27%30.16 "Hg10 mi
10:35 AM82 °FSunny.8 mph32%30.16 "Hg10 mi
10:15 AM82 °FScattered clouds.5 mph35%30.16 "Hg10 mi
9:55 AM82 °FScattered clouds.5 mph35%30.16 "Hg10 mi
9:35 AM81 °FScattered clouds.6 mph37%30.17 "Hg10 mi
9:15 AM81 °FScattered clouds.5 mph37%30.17 "Hg10 mi
8:55 AM81 °FScattered clouds.5 mph37%30.17 "Hg10 mi
8:35 AM77 °FSunny.3 mph42%30.18 "Hg10 mi
8:15 AM75 °FSunny.5 mph44%30.17 "Hg10 mi
7:55 AM72 °FSunny.No wind50%30.17 "Hg10 mi
7:35 AM73 °FSunny.No wind47%30.17 "Hg10 mi
7:15 AM72 °FSunny.3 mph47%30.17 "Hg10 mi
6:55 AM70 °FSunny.5 mph53%30.17 "Hg10 mi
6:35 AM70 °FSunny.3 mph50%30.16 "Hg10 mi
6:15 AM68 °FSunny.8 mph53%30.16 "Hg10 mi
5:55 AM66 °FSunny.9 mph56%30.15 "Hg10 mi
5:15 AM68 °FClear.10 mph53%30.14 "Hg10 mi
4:55 AM68 °FClear.9 mph53%30.14 "Hg10 mi
4:35 AM68 °FClear.9 mph53%30.13 "Hg10 mi
4:15 AM68 °FClear.9 mph53%30.13 "Hg10 mi
3:55 AM68 °FClear.10 mph53%30.13 "Hg10 mi
3:35 AM68 °FClear.10 mph53%30.13 "Hg10 mi
3:15 AM68 °FClear.7 mph53%30.12 "Hg10 mi
2:55 AM70 °FClear.8 mph50%30.13 "Hg10 mi
2:35 AM70 °FClear.7 mph50%30.13 "Hg10 mi
2:15 AM70 °FClear.12 mph50%30.14 "Hg10 mi
1:55 AM70 °FClear.9 mph53%30.13 "Hg10 mi
1:35 AM70 °FClear.8 mph53%30.13 "Hg10 mi
1:15 AM72 °FClear.7 mph50%30.14 "Hg10 mi
12:55 AM70 °FClear.9 mph53%30.14 "Hg10 mi
12:35 AM72 °FClear.8 mph50%30.14 "Hg10 mi
12:15 AM72 °FClear.12 mph50%30.15 "Hg10 mi
11:55 PM
Mon, Jul 6
72 °FClear.9 mph50%30.15 "Hg10 mi
11:35 PM72 °FClear.8 mph50%30.14 "Hg10 mi
11:15 PM72 °FClear.No wind50%30.14 "Hg10 mi
10:55 PM72 °FClear.6 mph50%30.15 "Hg10 mi
10:35 PM73 °FClear.7 mph47%30.14 "Hg10 mi
10:15 PM73 °FClear.8 mph47%30.14 "Hg10 mi
9:55 PM73 °FClear.8 mph47%30.14 "Hg10 mi
9:15 PM75 °FClear.7 mph44%30.13 "Hg10 mi
8:55 PM75 °FClear.6 mph44%30.13 "Hg10 mi
8:15 PM77 °FClear.7 mph42%30.12 "Hg10 mi
7:55 PM79 °FClear.6 mph37%30.12 "Hg10 mi
7:35 PM79 °FSunny.8 mph34%30.12 "Hg10 mi
7:15 PM81 °FSunny.12 mph30%30.11 "Hg10 mi
6:55 PM81 °FSunny.No wind37%30.10 "Hg10 mi
6:35 PM81 °FSunny.3 mph37%30.11 "Hg10 mi
6:15 PM82 °FSunny.No wind32%30.11 "Hg10 mi
Weather by CustomWeather, © 2015

See weather overviewHow to use our weather pages